If you wish to contribute or participate in the discussions about articles you are invited to join SKYbrary as a registered user

 Actions

Kitakyushu Airport

From SKYbrary Wiki

RJFR
Airport
ICAO: RJFR – IATA: KKJ
Summary
Name Kitakyushu Airport
Region Asia and Pacific
Territory Japan JP.gif
Location Kokuraminamiku, Fukuoka Prefecture
Serving Kitakyushu
Elevation 6.401 m
21 ft6.401 m
Coordinates 33° 50' 17.20" N, 131° 1' 55.58" E
Runways
Designator Length Width Surface ROPS
18/36 2500 m8,202.1 ft
79 m259.186 ft
ASP yes/yes


METAR
Observation RJFR 170100Z 03014KT 9999 FEW025 27/20 Q1011
Station Kitakyushu Airport
Date/Time 17 September 2019 01:00:00
Wind direction 30°
Wind speed 14 kts
Lowest cloud amount few clouds
Temperature 27°C
Dew point 20°C
Humidity 65%
QNH 1011 hPa
Weather condition n/a

Airport in Kokuraminami-ku, Kitakyushu, Fukuoka Japan. It is built on an artificial island in the western Seto Inland Sea.

Climatology

Humid Sub-tropical climate (Köppen climate classification Cfa)

Maps

Terrain

Loading map...

Airport Layout

Loading map...


Accidents & Serious Incidents at or in vicinity of RJFR

None on SKYbrary